�N����,����,�~����,�C��,���x,�C��,����,���ϕ���,�ő�u�ԕ���,�ő厞����,���˗�,�I�_���x,�n�����x,�ő啗���N��,DTYPE
"18/04/30","00:10",0.0,14.0,80.1,1011.9,305.6,1.5,2.5,340.7,0.00,10.7,16.5,"00:00:02",1
"18/04/30","00:20",0.0,13.9,80.0,1011.2,307.4,1.3,2.0,328.7,0.00,10.6,16.4,"00:10:08",1
"18/04/30","00:30",0.0,13.6,81.0,1011.6,306.5,1.2,2.5,325.9,0.00,10.4,16.3,"00:25:52",1
"18/04/30","00:40",0.0,13.5,82.0,1011.6,302.6,1.3,2.9,338.1,0.00,10.5,16.5,"00:38:56",1
"18/04/30","00:50",0.0,13.4,82.6,1011.4,298.6,1.3,2.2,318.3,0.00,10.5,16.2,"00:49:28",1
"18/04/30","01:00",0.0,13.2,83.4,1011.2,315.9,1.2,1.7,319.4,0.00,10.5,15.9,"00:59:48",1
"18/04/30","01:10",0.0,12.9,85.6,1011.2,308.7,1.5,1.9,326.1,0.00,10.6,16.2,"01:01:30",1
"18/04/30","01:20",0.0,12.6,86.5,1010.9,298.4,1.3,1.8,317.3,0.00,10.4,16.2,"01:19:24",1
"18/04/30","01:30",0.0,12.5,87.4,1011.2,317.4,1.6,2.2,319.8,0.00,10.5,16.2,"01:23:08",1
"18/04/30","01:40",0.0,12.4,87.5,1010.7,312.5,1.3,1.6,326.8,0.00,10.4,15.9,"01:30:22",1
"18/04/30","01:50",0.0,12.5,88.6,1011.4,290.0,1.3,1.6,283.4,0.00,10.7,15.9,"01:46:58",1
"18/04/30","02:00",0.0,12.7,88.8,1011.4,291.2,1.2,1.4,298.4,0.00,10.9,16.0,"01:50:22",1
"18/04/30","02:10",0.0,12.8,87.8,1011.9,304.2,1.3,1.7,330.5,0.00,10.9,15.9,"02:05:46",1
"18/04/30","02:20",0.0,12.5,88.7,1011.4,319.7,1.7,2.0,322.6,0.00,10.7,15.7,"02:10:08",1
"18/04/30","02:30",0.0,12.3,89.6,1011.4,285.3,1.2,1.6,269.1,0.00,10.7,15.9,"02:27:20",1
"18/04/30","02:40",0.0,12.4,89.5,1011.4,301.3,1.5,2.0,317.5,0.00,10.8,15.7,"02:38:08",1
"18/04/30","02:50",0.0,12.3,89.9,1011.6,322.1,1.5,1.9,352.2,0.00,10.7,15.5,"02:43:12",1
"18/04/30","03:00",0.0,12.0,89.8,1011.4,301.9,1.3,1.7,320.2,0.00,10.4,15.3,"02:51:16",1
"18/04/30","03:10",0.0,11.9,90.9,1011.6,301.3,1.1,2.5,313.3,0.00,10.5,15.6,"03:08:42",1
"18/04/30","03:20",0.0,12.0,90.9,1011.4,308.3,1.6,2.1,324.8,0.00,10.6,15.4,"03:12:40",1
"18/04/30","03:30",0.0,11.9,91.2,1011.6,321.4,1.3,1.9,323.1,0.00,10.6,15.4,"03:22:16",1
"18/04/30","03:40",0.0,11.8,91.3,1011.9,303.0,1.5,1.9,319.4,0.00,10.5,15.3,"03:34:34",1
"18/04/30","03:50",0.0,11.9,92.4,1011.6,286.7,1.2,2.0,318.1,0.00,10.7,15.3,"03:40:56",1
"18/04/30","04:00",0.0,11.9,91.8,1011.6,314.5,1.5,1.9,308.2,0.00,10.7,15.3,"03:57:50",1
"18/04/30","04:10",0.0,11.8,91.7,1011.6,324.0,1.6,1.9,313.1,0.00,10.5,15.2,"04:01:52",1
"18/04/30","04:20",0.0,11.6,92.6,1011.6,301.8,1.3,2.0,311.7,0.00,10.5,15.4,"04:12:48",1
"18/04/30","04:30",0.0,11.5,93.1,1011.4,312.3,1.7,2.0,323.5,0.00,10.5,15.1,"04:22:40",1
"18/04/30","04:40",0.0,11.7,93.5,1011.6,286.9,1.3,2.0,311.5,0.00,10.7,15.1,"04:38:40",1
"18/04/30","04:50",0.0,11.9,93.2,1011.4,294.2,1.3,2.2,321.9,0.00,10.9,15.1,"04:43:36",1
"18/04/30","05:00",0.0,12.0,93.0,1011.6,294.3,1.3,2.0,315.9,0.00,10.9,15.2,"04:59:34",1
"18/04/30","05:10",0.0,11.9,93.2,1011.6,319.7,1.7,2.0,314.1,0.00,10.9,15.1,"05:00:24",1
"18/04/30","05:20",0.0,11.9,93.4,1011.6,299.6,1.0,1.9,322.6,0.00,10.9,15.1,"05:10:08",1
"18/04/30","05:30",0.0,11.9,93.7,1011.6,304.2,1.1,1.8,320.0,0.00,11.0,15.0,"05:21:22",1
"18/04/30","05:40",0.0,12.0,93.8,1011.6,317.1,1.0,1.8,326.6,0.00,11.1,15.0,"05:35:22",1
"18/04/30","05:50",0.0,12.1,94.0,1011.9,306.6,1.5,1.8,314.4,0.00,11.2,15.1,"05:40:08",1
"18/04/30","06:00",0.0,12.3,94.0,1011.6,325.8,1.1,1.6,325.2,0.01,11.4,14.8,"05:53:02",1
"18/04/30","06:10",0.0,12.6,94.1,1011.6,322.4,1.2,1.7,329.1,0.02,11.7,15.1,"06:02:32",1
"18/04/30","06:20",0.0,13.4,94.4,1011.6,300.7,0.7,1.6,316.3,0.04,12.6,15.0,"06:11:36",1
"18/04/30","06:30",0.0,14.2,92.8,1012.1,301.3,0.6,0.9,305.6,0.04,13.1,14.9,"06:26:48",1
"18/04/30","06:40",0.0,14.9,91.8,1012.3,306.6,0.7,1.6,324.6,0.05,13.6,15.0,"06:37:04",1
"18/04/30","06:50",0.0,15.8,84.4,1012.8,328.8,0.3,0.8,307.2,0.07,13.2,15.2,"06:41:12",1
"18/04/30","07:00",0.0,16.1,82.7,1013.0,327.1,0.2,0.9,356.9,0.09,13.2,15.2,"06:59:52",1
"18/04/30","07:10",0.0,16.5,81.7,1013.0,354.8,0.8,1.6,334.1,0.12,13.4,15.0,"07:03:52",1
"18/04/30","07:20",0.0,16.5,78.8,1013.0,338.5,1.0,1.7,341.3,0.11,12.9,15.2,"07:13:04",1
"18/04/30","07:30",0.0,17.3,76.3,1013.3,321.3,0.7,1.0,330.5,0.13,13.1,15.2,"07:20:56",1
"18/04/30","07:40",0.0,18.1,74.0,1012.8,331.2,0.3,1.3,348.0,0.18,13.4,15.6,"07:37:12",1
"18/04/30","07:50",0.0,18.6,70.2,1012.6,290.7,0.3,1.0,344.5,0.21,13.1,15.7,"07:42:16",1
"18/04/30","08:00",0.0,18.9,68.2,1012.6,223.2,0.3,1.1,71.0,0.23,13.0,15.5,"07:57:04",1
"18/04/30","08:10",0.0,19.3,65.4,1012.6,3.3,0.6,1.6,17.8,0.26,12.7,15.8,"08:04:48",1
"18/04/30","08:20",0.0,19.4,63.8,1012.3,350.0,0.7,2.1,346.7,0.28,12.4,16.0,"08:19:36",1
"18/04/30","08:30",0.0,19.6,64.8,1012.3,313.7,1.0,2.6,351.2,0.29,12.8,16.2,"08:25:12",1
"18/04/30","08:40",0.0,19.7,64.3,1012.1,188.6,1.2,3.1,177.2,0.31,12.8,16.2,"08:37:12",1
"18/04/30","08:50",0.0,20.4,64.4,1011.9,153.0,1.3,2.5,163.6,0.36,13.5,16.5,"08:41:36",1
"18/04/30","09:00",0.0,20.4,62.7,1011.9,183.5,1.3,2.9,132.5,0.37,13.1,16.7,"08:59:04",1
"18/04/30","09:10",0.0,20.2,62.5,1011.6,161.8,1.3,3.3,127.3,0.31,12.9,17.0,"09:08:00",1
"18/04/30","09:20",0.0,20.6,62.1,1011.6,149.2,1.0,3.5,129.2,0.30,13.1,17.1,"09:19:04",1
"18/04/30","09:30",0.0,20.6,59.4,1011.4,114.0,1.1,3.2,116.9,0.31,12.5,17.4,"09:20:08",1
"18/04/30","09:40",0.0,22.0,59.6,1011.6,82.7,1.2,2.8,156.2,0.47,13.8,17.3,"09:39:36",1
"18/04/30","09:50",0.0,21.1,60.7,1011.2,132.5,1.6,3.3,172.0,0.34,13.3,17.7,"09:41:36",1
"18/04/30","10:00",0.0,22.1,58.5,1011.2,128.8,1.1,2.6,132.7,0.37,13.6,17.8,"09:51:28",1
"18/04/30","10:10",0.0,21.9,59.1,1010.9,130.9,1.6,3.7,114.6,0.42,13.6,18.1,"10:09:44",1
"18/04/30","10:20",0.0,22.3,59.4,1010.7,157.6,1.1,3.3,186.8,0.34,14.1,18.2,"10:16:48",1
"18/04/30","10:30",0.0,22.2,59.0,1010.9,146.3,1.2,2.6,127.4,0.33,13.9,18.2,"10:27:20",1
"18/04/30","10:40",0.0,21.9,58.3,1010.7,164.5,1.5,4.0,197.5,0.19,13.4,18.4,"10:37:44",1
"18/04/30","10:50",0.0,22.0,59.3,1010.7,258.0,1.7,3.5,229.1,0.18,13.7,18.6,"10:43:04",1
"18/04/30","11:00",0.0,22.5,57.3,1010.9,263.3,1.7,3.5,300.3,0.27,13.7,18.6,"10:50:24",1
"18/04/30","11:10",0.0,22.8,57.2,1010.9,190.4,1.6,5.1,210.4,0.30,13.9,18.8,"11:09:36",1
"18/04/30","11:20",0.0,22.3,57.9,1010.7,207.3,2.1,3.6,220.1,0.22,13.7,19.0,"11:12:00",1
"18/04/30","11:30",0.0,22.7,55.3,1010.9,251.0,1.2,3.3,257.4,0.23,13.3,18.9,"11:25:44",1
"18/04/30","11:40",0.0,22.5,57.3,1010.9,256.2,1.3,3.6,222.6,0.18,13.7,19.0,"11:39:04",1
"18/04/30","11:50",0.0,22.5,57.0,1010.7,220.0,1.6,2.7,204.4,0.21,13.6,19.0,"11:46:48",1
"18/04/30","12:00",0.0,22.2,58.6,1010.7,241.5,1.5,3.9,222.8,0.14,13.7,19.0,"11:58:32",1
"18/04/30","12:10",0.0,22.1,59.3,1011.2,223.4,2.1,4.4,185.2,0.11,13.8,19.0,"12:05:52",1
"18/04/30","12:20",0.0,21.9,60.0,1010.9,243.9,1.6,2.8,235.3,0.10,13.8,19.1,"12:12:56",1
"18/04/30","12:30",0.0,22.1,59.3,1010.7,237.8,1.3,3.1,214.7,0.14,13.8,19.1,"12:23:04",1
"18/04/30","12:40",0.0,21.9,61.2,1010.2,234.9,1.6,4.8,187.3,0.12,14.1,19.1,"12:32:16",1
"18/04/30","12:50",0.0,21.9,60.3,1010.7,258.5,1.3,4.1,232.6,0.11,13.9,19.1,"12:44:24",1
"18/04/30","13:00",0.0,21.8,61.4,1010.7,243.5,1.0,2.4,235.3,0.12,14.1,19.1,"12:53:12",1
"18/04/30","13:10",0.0,22.8,60.4,1010.9,240.2,1.7,4.4,229.5,0.28,14.8,19.1,"13:09:36",1
"18/04/30","13:20",0.0,22.5,58.1,1010.4,217.1,1.7,4.7,203.9,0.33,13.9,19.0,"13:10:16",1
"18/04/30","13:30",0.0,22.3,61.6,1010.4,229.2,1.5,3.4,192.2,0.18,14.6,19.2,"13:24:16",1
"18/04/30","13:40",0.0,22.9,57.2,1010.2,232.0,1.0,3.7,330.6,0.24,14.0,19.2,"13:39:36",1
"18/04/30","13:50",0.0,23.4,56.1,1009.7,265.1,1.3,2.4,326.5,0.40,14.2,19.5,"13:40:08",1
"18/04/30","14:00",0.0,23.6,56.4,1009.5,284.0,1.1,2.8,247.2,0.26,14.5,19.3,"13:54:16",1
"18/04/30","14:10",0.0,22.8,53.7,1008.6,302.3,1.3,3.3,333.0,0.20,13.0,19.4,"14:08:44",1
"18/04/30","14:20",0.0,22.5,54.6,1009.3,253.2,1.3,2.4,232.5,0.12,12.9,19.4,"14:11:36",1
"18/04/30","14:30",0.0,22.5,55.5,1009.0,276.6,1.2,2.7,239.3,0.10,13.2,19.5,"14:22:56",1
"18/04/30","14:40",0.0,22.6,56.0,1009.0,264.6,1.6,5.4,140.6,0.11,13.4,19.6,"14:38:40",1
"18/04/30","14:50",0.0,22.6,54.5,1009.3,228.8,1.8,5.5,209.8,0.08,13.0,19.6,"14:42:24",1
"18/04/30","15:00",0.0,22.4,57.7,1009.3,231.5,1.2,4.2,190.6,0.07,13.7,19.5,"14:56:32",1
"18/04/30","15:10",0.0,22.3,58.4,1009.5,233.9,1.5,2.9,233.3,0.07,13.8,19.4,"15:03:52",1
"18/04/30","15:20",0.0,22.1,58.5,1009.3,232.9,1.7,3.7,236.4,0.07,13.6,19.4,"15:19:44",1
"18/04/30","15:30",0.0,21.9,59.8,1009.3,249.1,1.6,3.7,233.9,0.07,13.8,19.3,"15:25:44",1
"18/04/30","15:40",0.0,21.9,60.0,1009.3,249.5,1.5,3.4,231.8,0.08,13.8,19.5,"15:35:36",1
"18/04/30","15:50",0.0,21.8,59.7,1009.5,263.6,1.1,2.9,235.0,0.07,13.7,19.3,"15:45:20",1
"18/04/30","16:00",0.0,21.7,61.8,1009.5,259.2,1.1,2.4,225.5,0.07,14.1,19.2,"15:56:00",1
"18/04/30","16:10",0.0,21.6,61.4,1009.5,261.4,1.1,2.0,268.1,0.07,13.9,19.2,"16:04:08",1
"18/04/30","16:20",0.0,21.4,61.7,1010.0,275.7,1.3,2.7,230.2,0.06,13.8,19.1,"16:14:08",1
"18/04/30","16:30",0.0,21.4,62.2,1009.7,276.9,1.0,1.9,334.8,0.06,13.9,19.1,"16:23:52",1
"18/04/30","16:40",0.0,21.4,61.6,1009.7,286.4,1.0,2.4,302.7,0.06,13.8,19.1,"16:38:00",1
"18/04/30","16:50",0.0,21.3,61.2,1009.5,283.1,1.1,2.5,304.4,0.05,13.6,19.1,"16:47:44",1
"18/04/30","17:00",0.0,21.2,62.0,1009.7,274.1,0.7,1.9,311.3,0.04,13.7,19.1,"16:56:40",1
"18/04/30","17:10",0.0,21.3,62.5,1009.5,259.5,0.6,1.8,246.6,0.04,13.9,19.0,"17:00:32",1
"18/04/30","17:20",0.0,21.5,63.1,1010.0,319.1,0.7,1.2,318.4,0.04,14.2,19.0,"17:14:32",1
"18/04/30","17:30",0.0,21.4,63.1,1009.7,326.5,1.1,1.7,333.1,0.04,14.1,19.1,"17:21:28",1
"18/04/30","17:40",0.0,21.9,60.9,1009.7,328.1,1.3,2.0,341.2,0.08,14.1,19.0,"17:34:48",1
"18/04/30","17:50",0.0,22.1,58.7,1009.7,338.2,1.0,1.8,355.9,0.06,13.7,18.9,"17:47:12",1
"18/04/30","18:00",0.0,21.7,60.9,1009.5,337.5,1.2,2.1,335.2,0.03,13.9,18.9,"17:56:24",1
"18/04/30","18:10",0.0,21.3,62.1,1009.7,336.4,1.1,1.7,343.8,0.01,13.8,18.8,"18:06:24",1
"18/04/30","18:20",0.0,21.0,65.9,1009.7,327.4,1.1,1.6,333.3,0.01,14.4,18.8,"18:10:40",1
"18/04/30","18:30",0.0,20.1,69.1,1009.7,328.8,1.3,2.0,333.9,0.00,14.3,18.8,"18:28:24",1
"18/04/30","18:40",0.0,19.3,71.5,1010.2,327.9,1.2,1.9,316.1,0.00,14.1,18.6,"18:34:56",1
"18/04/30","18:50",0.0,18.7,74.9,1009.7,314.6,1.1,1.9,333.3,0.00,14.2,18.7,"18:40:40",1
"18/04/30","19:00",0.0,18.3,76.7,1010.0,276.0,0.7,1.2,235.1,0.00,14.2,18.4,"18:56:16",1
"18/04/30","19:10",0.0,17.9,77.4,1010.4,297.0,1.2,1.9,323.2,0.00,13.9,18.3,"19:02:56",1
"18/04/30","19:20",0.0,17.4,77.9,1010.4,303.2,1.2,2.7,302.0,0.00,13.5,18.2,"19:10:32",1
"18/04/30","19:30",0.0,17.0,79.6,1010.7,313.4,1.3,2.5,298.8,0.00,13.5,18.1,"19:28:32",1
"18/04/30","19:40",0.0,16.8,79.8,1010.9,287.8,1.1,2.0,310.9,0.00,13.3,18.1,"19:32:24",1
"18/04/30","19:50",0.0,16.7,80.6,1011.4,282.8,1.1,1.6,292.3,0.00,13.4,18.1,"19:47:04",1
"18/04/30","20:00",0.0,16.6,80.7,1011.6,313.7,1.3,2.6,325.3,0.00,13.3,17.8,"19:58:24",1
"18/04/30","20:10",0.0,16.4,80.6,1011.6,328.8,1.3,2.6,339.7,0.00,13.1,17.7,"20:00:16",1
"18/04/30","20:20",0.0,15.9,82.0,1011.6,299.2,0.8,1.2,314.6,0.00,12.9,17.6,"20:14:32",1
"18/04/30","20:30",0.0,15.7,83.7,1011.6,323.2,0.6,1.4,315.8,0.00,13.0,17.4,"20:22:00",1
"18/04/30","20:40",0.0,15.4,84.0,1011.9,294.4,1.2,1.9,321.2,0.00,12.8,17.6,"20:38:56",1
"18/04/30","20:50",0.0,15.0,85.3,1011.9,324.4,1.1,1.9,339.2,0.00,12.6,17.2,"20:41:12",1
"18/04/30","21:00",0.0,14.7,86.5,1011.9,313.2,1.0,1.9,323.1,0.00,12.5,17.3,"20:50:02",1
"18/04/30","21:10",0.0,14.5,88.2,1012.3,309.6,1.2,1.7,322.7,0.00,12.6,16.9,"21:00:08",1
"18/04/30","21:20",0.0,14.4,87.2,1011.9,287.0,1.0,1.3,302.8,0.00,12.3,17.2,"21:18:16",1
"18/04/30","21:30",0.0,14.0,88.7,1011.9,290.7,0.7,1.6,318.7,0.00,12.2,16.9,"21:21:20",1
"18/04/30","21:40",0.0,14.1,90.0,1012.1,301.3,1.2,1.9,329.0,0.00,12.5,16.8,"21:39:44",1
"18/04/30","21:50",0.0,14.0,89.2,1012.1,318.1,1.3,1.8,320.7,0.00,12.3,16.7,"21:47:52",1
"18/04/30","22:00",0.0,13.9,90.6,1011.9,318.7,1.0,1.4,325.1,0.00,12.4,16.4,"21:51:20",1
"18/04/30","22:10",0.0,13.8,90.7,1012.3,313.0,1.0,1.7,324.2,0.00,12.3,16.7,"22:06:16",1
"18/04/30","22:20",0.0,13.8,90.6,1012.1,307.1,1.2,1.8,326.9,0.00,12.3,16.6,"22:13:04",1
"18/04/30","22:30",0.0,13.8,91.0,1011.6,288.3,1.0,1.4,267.8,0.00,12.4,16.4,"22:20:02",1
"18/04/30","22:40",0.0,13.8,90.5,1011.9,266.3,1.1,1.4,269.5,0.00,12.3,16.3,"22:35:44",1
"18/04/30","22:50",0.0,13.9,90.5,1011.9,307.9,1.3,2.1,313.7,0.00,12.4,16.3,"22:44:00",1
"18/04/30","23:00",0.0,13.5,89.6,1011.6,315.9,1.2,1.7,318.0,0.00,11.9,16.2,"22:57:44",1
"18/04/30","23:10",0.0,13.3,91.6,1011.9,332.4,1.5,1.9,332.7,0.00,12.0,15.9,"23:02:18",1
"18/04/30","23:20",0.0,13.0,90.8,1011.9,292.2,0.6,1.4,300.5,0.00,11.6,16.1,"23:19:38",1
"18/04/30","23:30",0.0,12.9,92.3,1011.9,321.5,1.5,1.7,325.1,0.00,11.7,16.1,"23:22:10",1
"18/04/30","23:40",0.0,12.7,91.8,1011.6,308.3,1.3,1.7,320.0,0.00,11.4,16.0,"23:33:36",1
"18/04/30","23:50",0.0,13.0,92.7,1011.6,286.8,1.3,1.8,298.7,0.00,11.9,15.9,"23:41:52",1
"18/04/30","24:00",0.0,12.9,92.6,1011.9,288.2,1.2,1.9,318.1,0.00,11.8,15.8,"23:51:12",1
